Weather History for Adrian, MI

Change the Weather History Date:

Thursday, March 21, 2013

  Actual Average Record
Temperature  
Mean Temperature 24 °F -  
Max Temperature 32 °F 47 °F 82 °F (2012)
Min Temperature 15 °F 27 °F 6 °F (1986)
Degree Days  
Heating Degree Days 42    
Moisture  
Dew Point 17 °F    
Average Humidity 73    
Maximum Humidity 88    
Minimum Humidity 56    
Precipitation  
Precipitation 0.00 in - - ()
Sea Level Pressure  
Sea Level Pressure 29.95 in    
Wind  
Wind Speed 10 mph (WNW)    
Max Wind Speed 18 mph    
Max Gust Speed 24 mph    
Visibility 10 miles    
Events Snow    
Averages and records for this station are not official NWS values.
T = Trace of Precipitation, MM = Missing Value Source: NWS Daily Summary

Daily Weather History Graph

Daily Weather History Graph

Search for Another Location

Airport:

Trip Planner

Search our weather history database for the weather conditions in past years. The results will help you decide how hot, cold, wet, or windy it might be!

Date:

Astronomy

Mar. 21, 2013 Rise Set
Actual Time 7:37 AM EDT 7:49 PM EDT
Civil Twilight 7:09 AM EDT 8:17 PM EDT
Nautical Twilight 6:37 AM EDT 8:50 PM EDT
Astronomical Twilight 6:03 AM EDT 9:23 PM EDT
Moon 2:14 PM EDT (3/21) 4:03 AM EDT (3/21)
Length of Visible Light 13h 08m
Length of Day
12h 12m
Waxing Gibbous, 68% of the Moon is Illuminated
Mar 21
Waxing Gibbous
Mar 27
Full
Apr 3
Last Quarter
Apr 10
New
Apr 18
First Quarter

Hourly Weather History & Observations

Time (EDT) Temp. Windchill Dew Point Humidity Pressure Visibility Wind Dir Wind Speed Gust Speed Precip Events Conditions
12:53 AM 17.1 °F 8.7 °F 10.9 °F 77% 29.99 in 10.0 mi WNW 5.8 mph - N/A   Clear
2:53 AM 16.0 °F 7.4 °F 12.0 °F 84% 29.97 in 10.0 mi West 5.8 mph - N/A   Clear
3:53 AM 15.1 °F 7.7 °F 12.0 °F 88% 29.96 in 10.0 mi West 4.6 mph - N/A   Partly Cloudy
4:53 AM 16.0 °F 5.3 °F 12.0 °F 84% 29.94 in 10.0 mi WNW 8.1 mph - N/A   Overcast
5:53 AM 17.1 °F 7.6 °F 12.0 °F 81% 29.94 in 10.0 mi West 6.9 mph - N/A   Overcast
6:53 AM 17.1 °F 5.8 °F 12.9 °F 84% 29.94 in 10.0 mi West 9.2 mph - N/A   Overcast
7:53 AM 17.1 °F 5.8 °F 12.0 °F 81% 29.94 in 10.0 mi WNW 9.2 mph - N/A   Clear
8:53 AM 19.0 °F 9.0 °F 14.0 °F 81% 29.94 in 10.0 mi West 8.1 mph - N/A   Mostly Cloudy
9:53 AM 21.9 °F 10.4 °F 16.0 °F 78% 29.93 in 10.0 mi WNW 11.5 mph - N/A   Mostly Cloudy
10:02 AM 23.0 °F 10.1 °F 15.8 °F 74% 29.89 in 10.0 mi WNW 15.0 mph 23.0 mph N/A   Mostly Cloudy
10:53 AM 24.1 °F 12.0 °F 17.1 °F 75% 29.94 in 10.0 mi NW 13.8 mph 20.7 mph N/A   Overcast
11:46 AM 26.6 °F 16.8 °F 17.6 °F 69% 29.90 in 10.0 mi NNW 10.4 mph - N/A   Overcast
11:53 AM 28.0 °F 17.5 °F 18.0 °F 66% 29.94 in 10.0 mi NW 12.7 mph 18.4 mph N/A   Overcast
12:53 PM 28.9 °F 19.2 °F 18.0 °F 64% 29.95 in 10.0 mi NW 11.5 mph - N/A   Overcast
1:42 PM 28.4 °F 17.0 °F 17.6 °F 64% 29.91 in 10.0 mi NW 15.0 mph 19.6 mph N/A   Overcast
1:53 PM 30.0 °F 19.1 °F 17.1 °F 59% 29.95 in 10.0 mi NW 15.0 mph 21.9 mph N/A   Overcast
2:53 PM 28.9 °F 17.7 °F 18.0 °F 64% 29.94 in 10.0 mi WNW 15.0 mph 23.0 mph N/A   Overcast
3:53 PM 30.0 °F 19.1 °F 19.0 °F 64% 29.94 in 10.0 mi WNW 15.0 mph 21.9 mph N/A   Overcast
4:53 PM 32.0 °F 24.2 °F 18.0 °F 56% 29.94 in 10.0 mi NW 9.2 mph 21.9 mph N/A   Overcast
5:53 PM 28.9 °F 18.6 °F 21.0 °F 72% 29.95 in 9.0 mi WNW 12.7 mph 24.2 mph 0.00 in Snow Light Snow
6:09 PM 30.2 °F 20.8 °F 21.2 °F 69% 29.91 in 10.0 mi WNW 11.5 mph - 0.00 in   Overcast
6:33 PM 28.4 °F 18.0 °F 21.2 °F 74% 29.91 in 9.0 mi WNW 12.7 mph - 0.00 in Snow Light Snow
6:48 PM 28.4 °F 15.8 °F 21.2 °F 74% 29.92 in 10.0 mi WNW 18.4 mph 24.2 mph 0.00 in   Overcast
6:53 PM 28.9 °F 17.3 °F 21.0 °F 72% 29.96 in 10.0 mi WNW 16.1 mph 24.2 mph 0.00 in   Overcast
7:53 PM 28.0 °F 17.0 °F 21.0 °F 75% 29.97 in 9.0 mi WNW 13.8 mph - 0.00 in Snow Light Snow
8:53 PM 27.0 °F 16.1 °F 21.0 °F 78% 29.97 in 10.0 mi WNW 12.7 mph 19.6 mph 0.00 in   Overcast
9:53 PM 27.0 °F 16.1 °F 18.0 °F 69% 29.98 in 10.0 mi WNW 12.7 mph - N/A   Overcast
10:53 PM 27.0 °F 15.6 °F 17.1 °F 66% 29.99 in 10.0 mi WNW 13.8 mph - N/A   Overcast
11:53 PM 26.1 °F 14.0 °F 17.1 °F 69% 30.00 in 10.0 mi NW 15.0 mph - N/A   Overcast